This demonstration page uses our WeatherBlox Daily Observations layout. Learn more.

41.55636, -103.73856

Hourly Observations for July 28, 2019

Temp ( °F °C ) Dew Point ( °F °C ) Humidity (%) Winds ( mph kmh ) Pressure ( in mb ) Visibility ( mi km ) Precip ( " mm )
12:53 am 00:53 Clear 66 18.9 65 18.3 96 96 Calm 29.85 1011 10 16.09344 0 0
1:53 am 01:53 Mostly Clear 66 18.9 65 18.3 96 96 Calm 29.85 1011 10 16.09344 0 0
2:53 am 02:53 Clear 64 17.8 63 17.2 96 96 Calm 29.85 1011 7 11.265408 0 0
3:53 am 03:53 Clear with Mist and Fog 63 17.2 63 17.2 100 100 WNW 6 9 29.85 1011 5 8.04672 0 0
4:02 am 04:02 Mostly Clear with Mist and Fog 63 17 63 17 100 100 WNW 5 7 29.85 1011 2.5 4.02336 0 0
4:08 am 04:08 Mostly Cloudy with Mist and Fog 63 17.2 63 17.2 100 100 WNW 7 11 29.85 1011 1 1.609344 0 0
4:16 am 04:16 Mostly Cloudy with Fog 63 17.2 63 17.2 100 100 WNW 7 11 29.85 1011 0.5 0.804672 0 0
4:29 am 04:29 Mostly Cloudy with Mist and Fog 63 17.2 63 17.2 100 100 WNW 6 9 29.85 1011 2 3.218688 0 0
4:35 am 04:35 Partly Cloudy with Mist and Fog 63 17.2 63 17.2 100 100 WNW 5 7 29.85 1011 3 4.828032 0 0
4:53 am 04:53 Clear with Mist and Fog 62 16.7 62 16.7 100 100 WNW 3 6 29.85 1011 3 4.828032 0 0
5:53 am 05:53 Sunny with Mist and Fog 63 17.2 63 17.2 100 100 WNW 7 11 29.91 1013 4 6.437376 0 0
6:53 am 06:53 Sunny 65 18.3 64 17.8 97 97 WNW 8 13 29.91 1013 8 12.874752 0 0
7:53 am 07:53 Sunny 69 20.6 65 18.3 87 87 W 9 15 29.91 1013 10 16.09344 0 0
8:53 am 08:53 Mostly Sunny 73 22.8 64 17.8 74 74 WNW 10 17 29.91 1013 10 16.09344 0 0
9:53 am 09:53 Partly Cloudy 78 25.6 64 17.8 62 62 W 13 20 29.91 1013 10 16.09344 0 0
10:53 am 10:53 Sunny 83 28.3 61 16.1 48 48 WNW 12 19 29.91 1013 10 16.09344 0 0
11:53 am 11:53 Sunny 88 31.1 55 12.8 33 33 NW 14 22 29.91 1013 10 16.09344 0 0
12:53 pm 12:53 Sunny 89 31.7 51 10.6 27 27 NNW 13 20 29.91 1013 10 16.09344 0 0
1:53 pm 13:53 Mostly Sunny 90 32.2 51 10.6 26 26 WNW 14 22 29.91 1013 10 16.09344 0 0
2:53 pm 14:53 Sunny 91 32.8 51 10.6 26 26 W 12 19 29.91 1013 10 16.09344 0 0
3:53 pm 15:53 Sunny 91 32.8 50 10 25 25 WNW 13 20 29.91 1013 10 16.09344 0 0
4:53 pm 16:53 Sunny 92 33.3 51 10.6 25 25 WNW 13 20 29.88 1012 10 16.09344 0 0
5:53 pm 17:53 Mostly Cloudy 84 28.9 56 13.3 38 38 NE 12 19 29.91 1013 10 16.09344 0 0
6:53 pm 18:53 Mostly Sunny 79 26.1 57 13.9 47 47 ENE 10 17 29.94 1014 10 16.09344 0 0
7:53 pm 19:53 Sunny 74 23.3 58 14.4 57 57 ENE 6 9 29.94 1014 10 16.09344 0 0
8:53 pm 20:53 Clear 69 20.6 58 14.4 68 68 NE 7 11 30 1016 10 16.09344 0 0
9:53 pm 21:53 Clear 66 18.9 58 14.4 75 75 ENE 7 11 30 1016 10 16.09344 0 0
10:53 pm 22:53 Clear 68 20 56 13.3 65 65 SE 6 9 30 1016 10 16.09344 0 0
11:53 pm 23:53 Clear 65 18.3 56 13.3 73 73 SE 3 6 30.03 1017 10 16.09344 0 0

Powered by AerisWeather